Flag for Australia Weather past 2 weeks in Eucla, Western Australia, Australia

Now
63 °F

Partly sunny.


Feels Like: 63 °F
Forecast: 53 / 76 °F
Wind: 7 mph from Southwest

Location: Eucla Amo

Current Time: Jul 30, 2015 at 11:48:27 AM

Latest Report: Jul 30, 2015 at 9:45 AM


Visibility: 25 mi

Pressure: 30.21 "Hg

Humidity: 73%

Dew point: 54 °F

Location of EuclaLocation

Historic Weather in Eucla — Graph

°F

Eucla temperature yesterday

Maximum temperature yesterday: 78 °F (at 2:45 PM)
Minimum temperature yesterday: 54 °F (at 11:45 PM)
Average temperature yesterday: 63 °F

Past Weeks' High & Low Weather Summary

 TemperatureHumidityPressure
High78 °F (Jul 29, 2:45 PM)97% (Jul 17, 2:45 AM)30.63 "Hg (Jul 17, 2:45 AM)
Low36 °F (Jul 19, 6:45 AM)12% (Jul 20, 2:45 PM)29.82 "Hg (Jul 21, 2:45 PM)
Average53 °F69%30.26 "Hg
* Reported Jul 15 9:45 AM — Jul 30 9:45 AM, Eucla, Weather by CustomWeather, © 2015

Note: Actual official high and low records may vary slightly from our data, if they occured in-between our weather recording intervals... More about our weather records

Advertising

Eucla weather history for previous 24 hours

 ConditionsComfort  
Time TempWeatherWind HumidityBarometerVisibility
9:45 AM
Thu, Jul 30
63 °FPartly sunny.7 mph73%30.21 "Hg25 mi
8:45 AM60 °FCool.6 mph86%30.19 "HgN/A
6:45 AM54 °FCool.6 mph94%30.14 "HgN/A
5:45 AM53 °FCool.5 mph93%30.11 "HgN/A
3:45 AM53 °FCool.No wind92%30.09 "HgN/A
2:45 AM55 °FCool.3 mph89%30.10 "HgN/A
12:45 AM55 °FCool.No wind88%30.10 "HgN/A
11:45 PM
Wed, Jul 29
54 °FCool.No wind87%30.11 "HgN/A
9:45 PM58 °FCool.6 mph86%30.12 "HgN/A
8:45 PM57 °FCool.5 mph84%30.11 "HgN/A
6:45 PM61 °FCool.8 mph76%30.09 "HgN/A
5:45 PM71 °FMild.7 mph33%30.06 "HgN/A
3:45 PM78 °FPassing clouds.17 mph30%30.03 "Hg25 mi
2:45 PM78 °FPleasantly warm.20 mph30%30.03 "HgN/A
12:45 PM75 °FMild.20 mph21%30.08 "HgN/A
11:45 AM73 °FMild.21 mph23%30.11 "HgN/A
Weather by CustomWeather, © 2015

See weather overviewHow to use our weather pages